DW2149 Weather Reports


time (UTC)temp
C
wind
direction
speed
KPH
gust
KPH
rain 1hr
cm
rain 24hr
cm
rain mn
cm
humidity
%
barometer
mb
20260502184903 23 191 1.6 11.3 0.00 0.00 0.00 44 1011.3
20260502184701 23 212 1.6 9.7 0.00 0.00 0.00 46 1011.3
20260502184313 23 203 1.6 9.7 0.00 0.00 0.00 45 1011.3
20260502184105 23 221 1.6 9.7 0.00 0.00 0.00 45 1011.3
20260502183855 23 221 1.6 9.7 0.00 0.00 0.00 48 1011.3
20260502183651 23 222 1.6 9.7 0.00 0.00 0.00 50 1011.4
20260502183443 23 222 3.2 9.7 0.00 0.00 0.00 47 1011.4
20260502183235 23 214 1.6 9.7 0.00 0.00 0.00 46 1011.5
20260502183025 23 208 1.6 9.7 0.00 0.00 0.00 46 1011.4
20260502182822 23 205 1.6 9.7 0.00 0.00 0.00 46 1011.4
20260502182613 23 207 1.6 9.7 0.00 0.00 0.00 47 1011.4
20260502182403 23 207 1.6 9.7 0.00 0.00 0.00 47 1011.4
20260502182153 23 219 3.2 9.7 0.00 0.00 0.00 47 1011.4
20260502181951 23 219 3.2 9.7 0.00 0.00 0.00 48 1011.4
20260502181744 23 219 3.2 9.7 0.00 0.00 0.00 47 1011.4
20260502181536 22 200 3.2 12.9 0.00 0.00 0.00 47 1011.4
20260502181328 22 219 3.2 12.9 0.00 0.00 0.00 46 1011.4
20260502181117 22 223 3.2 12.9 0.00 0.00 0.00 47 1011.4
20260502180912 22 225 3.2 12.9 0.00 0.00 0.00 48 1011.4
20260502180701 22 211 3.2 12.9 0.00 0.00 0.00 48 1011.5
20260502180304 22 217 3.2 12.9 0.00 0.00 0.00 48 1011.4
20260502170516 20 207 0.0 4.8 0.00 0.00 0.00 55 1011.2
20260502170304 20 207 1.6 0.0 0.00 0.00 0.00 55 1011.3
20260502164150 18 219 0.0 9.7 0.00 0.00 0.00 63 1011.4
20260502163949 18 219 0.0 9.7 0.00 0.00 0.00 63 1011.4
20260502163744 17 223 0.0 0.0 0.00 0.00 0.00 65 1011.4
20260502163356 17 223 0.0 4.8 0.00 0.00 0.00 68 1011.4
20260502163001 16 223 0.0 4.8 0.00 0.00 0.00 73 1011.3
20260502162759 16 223 0.0 1.6 0.00 0.00 0.00 76 1011.2
20260502162555 16 223 0.0 8.0 0.00 0.00 0.00 77 1011.2
20260502162158 15 306 0.0 0.0 0.00 0.00 0.00 83 1011.2
20260502161949 14 306 0.0 0.0 0.00 0.00 0.00 84 1011.2
20260502161602 14 310 0.0 0.0 0.00 0.00 0.00 86 1011.2
20260502161353 13 310 0.0 0.0 0.00 0.00 0.00 87 1011.1
20260502161146 13 310 0.0 0.0 0.00 0.00 0.00 87 1011.1
20260502160937 13 310 0.0 0.0 0.00 0.00 0.00 88 1011.2
20260502160730 13 310 0.0 0.0 0.00 0.00 0.00 88 1011.1
20260502160522 13 310 0.0 0.0 0.00 0.00 0.00 88 1011.1
20260502160319 13 310 0.0 0.0 0.00 0.00 0.00 88 1011.1
20260502160107 13 310 0.0 0.0 0.00 0.00 0.00 88 1011.0
20260502151719 10 309 0.0 0.0 0.00 0.00 0.00 85 1010.9
20260502151321 10 309 0.0 0.0 0.00 0.00 0.00 85 1010.8
20260502151111 10 306 0.0 0.0 0.00 0.00 0.00 84 1010.9
20260502150909 10 306 0.0 0.0 0.00 0.00 0.00 84 1010.9
20260502150702 10 306 0.0 0.0 0.00 0.00 0.00 84 1010.9
20260502150453 10 306 0.0 0.0 0.00 0.00 0.00 84 1010.9
20260502150251 10 306 0.0 0.0 0.00 0.00 0.00 84 1010.9
20260502130551 10 306 0.0 0.0 0.00 0.00 0.00 84 1010.2
20260502130344 10 306 0.0 0.0 0.00 0.00 0.00 84 1010.2
20260502130134 10 306 0.0 0.0 0.00 0.00 0.00 84 1010.2
20260502123702 10 306 0.0 0.0 0.00 0.00 0.00 84 1010.3
20260502123449 10 306 0.0 0.0 0.00 0.00 0.00 84 1010.4
20260502123237 10 306 0.0 0.0 0.00 0.00 0.00 84 1010.3
20260502123027 10 306 0.0 0.0 0.00 0.00 0.00 84 1010.4
20260502122820 10 306 0.0 0.0 0.00 0.00 0.00 84 1010.5
20260502122618 10 306 0.0 0.0 0.00 0.00 0.00 84 1010.4
20260502122406 10 306 0.0 0.0 0.00 0.00 0.00 84 1010.5
20260502122013 10 306 0.0 0.0 0.00 0.00 0.00 84 1010.5
20260502121802 10 306 0.0 0.0 0.00 0.00 0.00 84 1010.4
20260502121408 10 306 0.0 0.0 0.00 0.00 0.00 84 1010.5
20260502121204 10 306 0.0 0.0 0.00 0.00 0.00 84 1010.4
20260502120953 10 306 0.0 0.0 0.00 0.00 0.00 84 1010.6
20260502120559 10 306 0.0 0.0 0.00 0.00 0.00 84 1010.5
20260502120355 10 306 0.0 0.0 0.00 0.00 0.00 84 1010.6
20260502120151 10 306 0.0 0.0 0.00 0.00 0.00 84 1010.5
20260502115759 10 306 0.0 0.0 0.00 0.00 0.00 84 1010.6
20260502115226 10 306 0.0 0.0 0.00 0.00 0.00 84 1010.6
20260502115015 10 306 0.0 0.0 0.00 0.00 0.00 84 1010.6
20260502114808 10 306 0.0 0.0 0.00 0.00 0.00 84 1010.6
20260502114600 10 306 0.0 0.0 0.00 0.00 0.00 84 1010.6
20260502114347 10 306 0.0 0.0 0.00 0.00 0.00 83 1010.6
20260502114137 10 306 0.0 0.0 0.00 0.00 0.00 83 1010.6
20260502113930 10 306 0.0 0.0 0.00 0.00 0.00 83 1010.6
20260502113724 10 306 0.0 0.0 0.00 0.00 0.00 83 1010.7
20260502113517 10 306 0.0 0.0 0.00 0.00 0.00 84 1010.6
20260502113257 10 306 0.0 0.0 0.00 0.00 0.00 84 1010.7
20260502113046 10 306 0.0 0.0 0.00 0.00 0.00 84 1010.7
20260502112842 10 306 0.0 0.0 0.00 0.00 0.00 83 1010.7
20260502112632 10 306 0.0 0.0 0.00 0.00 0.00 83 1010.7
20260502112419 10 306 0.0 0.0 0.00 0.00 0.00 83 1010.7
20260502112213 10 306 0.0 0.0 0.00 0.00 0.00 83 1010.7
20260502111825 10 306 0.0 0.0 0.00 0.00 0.00 83 1010.8
20260502111251 10 306 0.0 0.0 0.00 0.00 0.00 83 1010.8
20260502111043 10 306 0.0 0.0 0.00 0.00 0.00 83 1010.9
20260502110830 10 306 0.0 0.0 0.00 0.00 0.00 83 1010.9
20260502110619 10 306 0.0 0.0 0.00 0.00 0.00 83 1010.8
20260502110407 10 306 0.0 0.0 0.00 0.00 0.00 83 1010.9
20260502110203 10 306 0.0 0.0 0.00 0.00 0.00 83 1010.9
20260502105950 10 306 0.0 0.0 0.00 0.00 0.00 83 1010.9
20260502105737 10 306 0.0 0.0 0.00 0.00 0.00 83 1010.9
20260502105533 10 306 0.0 0.0 0.00 0.00 0.00 83 1011.0
20260502105320 10 306 0.0 0.0 0.00 0.00 0.00 83 1010.9
20260502104933 10 306 0.0 0.0 0.00 0.00 0.00 83 1011.0
20260502104725 10 306 0.0 0.0 0.00 0.00 0.00 83 1011.0
20260502104519 10 306 0.0 0.0 0.00 0.00 0.00 83 1010.9
20260502104316 10 306 0.0 0.0 0.00 0.00 0.00 83 1011.0
20260502104107 10 306 0.0 0.0 0.00 0.00 0.00 83 1010.9
20260502103906 10 306 0.0 0.0 0.00 0.00 0.00 83 1011.0
20260502103655 10 306 0.0 0.0 0.00 0.00 0.00 83 1011.0
20260502103445 10 306 0.0 0.0 0.00 0.00 0.00 83 1011.0
20260502103052 10 306 0.0 0.0 0.00 0.00 0.00 83 1011.0
20260502102841 10 306 0.0 0.0 0.00 0.00 0.00 82 1011.1
20260502102630 10 306 0.0 0.0 0.00 0.00 0.00 82 1011.2
20260502102239 10 306 0.0 0.0 0.00 0.00 0.00 82 1011.2
20260502102033 10 306 0.0 0.0 0.00 0.00 0.00 82 1011.2
20260502101635 10 306 0.0 0.0 0.00 0.00 0.00 82 1011.2
20260502101427 10 306 0.0 0.0 0.00 0.00 0.00 82 1011.2
20260502101219 10 306 0.0 0.0 0.00 0.00 0.00 82 1011.2
20260502100822 10 306 0.0 0.0 0.00 0.00 0.00 82 1011.2
20260502100431 10 306 0.0 0.0 0.00 0.00 0.00 82 1011.3
20260502100220 10 306 0.0 0.0 0.00 0.00 0.00 82 1011.2
20260502091426 10 306 0.0 0.0 0.00 0.00 0.00 81 1011.6
20260502091219 10 306 0.0 0.0 0.00 0.00 0.00 81 1011.7
20260502091013 10 306 0.0 0.0 0.00 0.00 0.00 81 1011.6
20260502090809 10 306 0.0 0.0 0.00 0.00 0.00 81 1011.6
20260502090419 10 306 0.0 0.0 0.00 0.00 0.00 80 1011.6
20260502071437 10 306 0.0 0.0 0.00 0.00 0.00 75 1011.8
20260502071236 10 306 0.0 0.0 0.00 0.00 0.00 75 1011.8
20260502071027 10 306 0.0 0.0 0.00 0.00 0.00 75 1011.7
20260502070814 10 306 0.0 0.0 0.00 0.00 0.00 75 1011.8
20260502070602 11 306 0.0 0.0 0.00 0.00 0.00 75 1011.8
20260502070358 11 306 0.0 0.0 0.00 0.00 0.00 74 1011.7
20260502070008 11 306 0.0 0.0 0.00 0.00 0.00 74 1011.7
20260502065755 11 306 0.0 0.0 0.00 0.00 0.00 74 1011.8
20260502065400 11 306 0.0 0.0 0.00 0.00 0.00 74 1011.7
20260502065004 11 306 0.0 0.0 0.00 0.00 0.00 74 1011.7
20260502064755 11 306 0.0 0.0 0.00 0.00 0.00 74 1011.6
20260502064544 11 306 0.0 0.0 0.00 0.00 0.00 74 1011.6
20260502064151 11 306 0.0 0.0 0.00 0.00 0.00 74 1011.7
20260502063800 11 306 0.0 0.0 0.00 0.00 0.00 74 1011.7
20260502063551 11 306 0.0 0.0 0.00 0.00 0.00 74 1011.7
20260502063349 11 306 0.0 0.0 0.00 0.00 0.00 74 1011.7
20260502063145 11 306 0.0 0.0 0.00 0.00 0.00 74 1011.7
20260502062750 11 306 0.0 0.0 0.00 0.00 0.00 74 1011.7
20260502062404 11 306 0.0 0.0 0.00 0.00 0.00 74 1011.6
20260502062202 11 306 0.0 0.0 0.00 0.00 0.00 74 1011.7
20260502061958 11 306 0.0 0.0 0.00 0.00 0.00 75 1011.7
20260502061750 11 306 0.0 0.0 0.00 0.00 0.00 75 1011.7
20260502061545 11 306 0.0 0.0 0.00 0.00 0.00 75 1011.7
20260502061343 11 306 0.0 0.0 0.00 0.00 0.00 75 1011.7
20260502061136 12 306 0.0 0.0 0.00 0.00 0.00 75 1011.7
20260502060932 12 306 0.0 0.0 0.00 0.00 0.00 75 1011.7
20260502060731 12 306 0.0 0.0 0.00 0.00 0.00 75 1011.7
20260502060524 12 306 0.0 0.0 0.00 0.00 0.00 75 1011.7
20260502060132 12 306 0.0 0.0 0.00 0.00 0.00 75 1011.7
20260502055739 12 306 0.0 0.0 0.00 0.00 0.00 75 1011.7
20260502055531 12 306 0.0 0.0 0.00 0.00 0.00 75 1011.7
20260502055328 12 306 0.0 0.0 0.00 0.00 0.00 75 1011.7
20260502055116 12 306 0.0 0.0 0.00 0.00 0.00 75 1011.7
20260502054907 12 306 0.0 0.0 0.00 0.00 0.00 75 1011.7
20260502054512 12 306 0.0 0.0 0.00 0.00 0.00 75 1011.7
20260502054301 12 306 0.0 0.0 0.00 0.00 0.00 75 1011.8
20260502054050 12 306 0.0 0.0 0.00 0.00 0.00 75 1011.8
20260502053845 12 306 0.0 0.0 0.00 0.00 0.00 75 1011.8
20260502053644 12 306 0.0 0.0 0.00 0.00 0.00 75 1011.8
20260502053431 12 306 0.0 0.0 0.00 0.00 0.00 74 1011.7
20260502053224 12 306 0.0 0.0 0.00 0.00 0.00 74 1011.7
20260502053013 12 306 0.0 0.0 0.00 0.00 0.00 74 1011.7
20260502052807 12 306 0.0 0.0 0.00 0.00 0.00 74 1011.7
20260502052558 13 306 0.0 0.0 0.00 0.00 0.00 74 1011.7
20260502052346 13 306 0.0 0.0 0.00 0.00 0.00 74 1011.7
20260502052140 13 306 0.0 0.0 0.00 0.00 0.00 74 1011.7
20260502051930 13 306 0.0 0.0 0.00 0.00 0.00 74 1011.7
20260502051726 13 306 0.0 0.0 0.00 0.00 0.00 74 1011.7
20260502051522 13 306 0.0 0.0 0.00 0.00 0.00 74 1011.6
20260502051315 13 306 0.0 0.0 0.00 0.00 0.00 74 1011.6
20260502051110 13 306 0.0 0.0 0.00 0.00 0.00 74 1011.7
20260502050857 13 306 0.0 0.0 0.00 0.00 0.00 74 1011.7
20260502050645 13 306 0.0 0.0 0.00 0.00 0.00 74 1011.7
20260502050438 13 306 0.0 0.0 0.00 0.00 0.00 74 1011.7
20260502050230 13 306 0.0 0.0 0.00 0.00 0.00 74 1011.7
20260502050025 13 306 0.0 0.0 0.00 0.00 0.00 73 1011.8
20260502045812 13 306 0.0 0.0 0.00 0.00 0.00 73 1011.7
20260502045424 13 306 0.0 0.0 0.00 0.00 0.00 73 1011.7
20260502045219 13 306 0.0 0.0 0.00 0.00 0.00 73 1011.7
20260502045017 13 306 0.0 0.0 0.00 0.00 0.00 73 1011.7
20260502044814 14 306 0.0 0.0 0.00 0.00 0.00 73 1011.6
20260502044608 14 306 0.0 0.0 0.00 0.00 0.00 73 1011.6
20260502044406 14 306 0.0 0.0 0.00 0.00 0.00 73 1011.5
20260502044200 14 306 0.0 0.0 0.00 0.00 0.00 73 1011.5
20260502043952 14 306 0.0 0.0 0.00 0.00 0.00 73 1011.5
20260502043603 14 306 0.0 0.0 0.00 0.00 0.00 72 1011.5
20260502043212 14 306 0.0 0.0 0.00 0.00 0.00 72 1011.5
20260502043009 15 306 0.0 0.0 0.00 0.00 0.00 72 1011.5
20260502042759 15 306 0.0 0.0 0.00 0.00 0.00 72 1011.5
20260502042554 15 306 0.0 0.0 0.00 0.00 0.00 72 1011.4
20260502042342 15 306 0.0 0.0 0.00 0.00 0.00 71 1011.5
20260502042130 15 306 0.0 0.0 0.00 0.00 0.00 71 1011.4
20260502041734 15 306 0.0 0.0 0.00 0.00 0.00 71 1011.4
20260502041527 15 306 0.0 0.0 0.00 0.00 0.00 71 1011.4
20260502041316 15 306 0.0 0.0 0.00 0.00 0.00 71 1011.3
20260502041107 15 306 0.0 0.0 0.00 0.00 0.00 70 1011.2
20260502040902 15 306 0.0 0.0 0.00 0.00 0.00 70 1011.3
20260502040656 15 306 0.0 0.0 0.00 0.00 0.00 70 1011.3
20260502040448 15 306 0.0 0.0 0.00 0.00 0.00 70 1011.2
20260502040236 15 306 0.0 0.0 0.00 0.00 0.00 70 1011.2
20260502040024 16 306 0.0 0.0 0.00 0.00 0.00 69 1011.2
20260502035812 16 306 0.0 0.0 0.00 0.00 0.00 69 1011.1
20260502035610 16 306 0.0 0.0 0.00 0.00 0.00 69 1011.1
20260502035407 16 306 0.0 0.0 0.00 0.00 0.00 69 1011.1
20260502035155 16 306 0.0 0.0 0.00 0.00 0.00 68 1011.1
20260502034949 16 306 0.0 0.0 0.00 0.00 0.00 68 1011.0
20260502034738 16 306 0.0 0.0 0.00 0.00 0.00 68 1011.0
20260502034531 16 306 0.0 0.0 0.00 0.00 0.00 68 1010.9
20260502034329 16 306 0.0 0.0 0.00 0.00 0.00 68 1010.9
20260502034124 16 306 0.0 0.0 0.00 0.00 0.00 68 1010.9
20260502033912 16 306 0.0 0.0 0.00 0.00 0.00 67 1010.9
20260502033702 16 306 0.0 0.0 0.00 0.00 0.00 67 1010.9
20260502033455 17 306 0.0 0.0 0.00 0.00 0.00 67 1010.8
20260502033249 17 306 0.0 0.0 0.00 0.00 0.00 66 1010.8
20260502032901 17 306 0.0 0.0 0.00 0.00 0.00 66 1010.7
20260502032507 17 306 0.0 0.0 0.00 0.00 0.00 66 1010.7
20260502032259 17 306 0.0 0.0 0.00 0.00 0.00 66 1010.7
20260502032046 17 306 0.0 0.0 0.00 0.00 0.00 65 1010.7
20260502031842 17 306 0.0 0.0 0.00 0.00 0.00 65 1010.7
20260502031636 17 306 0.0 0.0 0.00 0.00 0.00 65 1010.6
20260502031426 17 306 0.0 0.0 0.00 0.00 0.00 65 1010.7
20260502031215 18 306 0.0 0.0 0.00 0.00 0.00 64 1010.6
20260502031011 18 306 0.0 0.0 0.00 0.00 0.00 64 1010.6
20260502030801 18 306 0.0 0.0 0.00 0.00 0.00 64 1010.5
20260502030600 18 306 0.0 0.0 0.00 0.00 0.00 64 1010.6
20260502030204 18 306 0.0 0.0 0.00 0.00 0.00 63 1010.5
20260502025812 18 306 0.0 0.0 0.00 0.00 0.00 63 1010.5
20260502025604 18 306 0.0 0.0 0.00 0.00 0.00 63 1010.4
20260502025356 18 306 0.0 0.0 0.00 0.00 0.00 63 1010.4
20260502025149 18 306 0.0 0.0 0.00 0.00 0.00 63 1010.4
20260502024947 18 306 0.0 0.0 0.00 0.00 0.00 63 1010.5
20260502024557 19 306 0.0 0.0 0.00 0.00 0.00 62 1010.5
20260502024201 19 306 0.0 0.0 0.00 0.00 0.00 62 1010.4
20260502023812 19 306 0.0 0.0 0.00 0.00 0.00 62 1010.5
20260502023605 19 306 0.0 0.0 0.00 0.00 0.00 61 1010.4
20260502023357 20 306 0.0 0.0 0.00 0.00 0.00 61 1010.4
20260502022819 20 306 0.0 0.0 0.00 0.00 0.00 60 1010.4
20260502022614 20 306 0.0 0.0 0.00 0.00 0.00 59 1010.4
20260502022409 20 306 0.0 0.0 0.00 0.00 0.00 59 1010.4
20260502022159 20 306 0.0 0.0 0.00 0.00 0.00 59 1010.4
20260502021950 20 306 0.0 0.0 0.00 0.00 0.00 58 1010.4
20260502021737 20 306 0.0 0.0 0.00 0.00 0.00 57 1010.4
20260502021526 21 306 0.0 0.0 0.00 0.00 0.00 57 1010.4
20260502021314 21 306 0.0 0.0 0.00 0.00 0.00 57 1010.4
20260502021108 21 306 0.0 0.0 0.00 0.00 0.00 57 1010.5
20260502020903 21 306 0.0 0.0 0.00 0.00 0.00 56 1010.4
20260502020650 21 306 0.0 0.0 0.00 0.00 0.00 56 1010.4
20260502020111 21 306 0.0 0.0 0.00 0.00 0.00 54 1010.4
20260502015909 21 306 0.0 0.0 0.00 0.00 0.00 54 1010.4
20260502015701 22 306 0.0 0.0 0.00 0.00 0.00 54 1010.4
20260502015453 22 306 0.0 0.0 0.00 0.00 0.00 53 1010.4
20260502015247 22 306 0.0 0.0 0.00 0.00 0.00 53 1010.4
20260502015036 22 306 0.0 1.6 0.00 0.00 0.00 50 1010.3
20260502014825 22 306 0.0 1.6 0.00 0.00 0.00 51 1010.4
20260502014622 22 306 0.0 1.6 0.00 0.00 0.00 50 1010.3
20260502014410 22 306 0.0 0.0 0.00 0.00 0.00 50 1010.3
20260502014200 22 306 0.0 0.0 0.00 0.00 0.00 51 1010.3
20260502013955 22 306 0.0 1.6 0.00 0.00 0.00 49 1010.3
20260502013753 22 306 0.0 1.6 0.00 0.00 0.00 48 1010.3
20260502013546 22 307 0.0 1.6 0.00 0.00 0.00 49 1010.3
20260502013342 22 307 0.0 1.6 0.00 0.00 0.00 48 1010.3
20260502013130 22 308 0.0 1.6 0.00 0.00 0.00 49 1010.3
20260502012919 22 307 0.0 0.0 0.00 0.00 0.00 49 1010.3
20260502012707 23 307 0.0 0.0 0.00 0.00 0.00 47 1010.3
20260502012503 23 308 0.0 8.0 0.00 0.00 0.00 46 1010.2
20260502012251 23 266 0.0 3.2 0.00 0.00 0.00 45 1010.3
20260502012043 23 263 0.0 1.6 0.00 0.00 0.00 46 1010.4
20260502011831 23 262 0.0 0.0 0.00 0.00 0.00 45 1010.3
20260502011620 23 262 0.0 0.0 0.00 0.00 0.00 46 1010.4
20260502011410 23 261 0.0 0.0 0.00 0.00 0.00 45 1010.4
20260502011207 23 261 0.0 9.7 0.00 0.00 0.00 45 1010.3
20260502010954 23 266 0.0 9.7 0.00 0.00 0.00 45 1010.4
20260502010745 23 184 0.0 9.7 0.00 0.00 0.00 45 1010.4
20260502010537 23 355 0.0 9.7 0.00 0.00 0.00 46 1010.3
20260502010327 23 197 0.0 6.4 0.00 0.00 0.00 47 1010.3
20260502010115 23 193 0.0 6.4 0.00 0.00 0.00 45 1010.4
20260502005910 23 193 0.0 6.4 0.00 0.00 0.00 44 1010.4
20260502005658 23 197 0.0 4.8 0.00 0.00 0.00 44 1010.5
20260502005453 23 236 1.6 0.0 0.00 0.00 0.00 45 1010.5
20260502005246 23 236 1.6 6.4 0.00 0.00 0.00 44 1010.6
20260502004851 23 236 1.6 6.4 0.00 0.00 0.00 44 1010.6
20260502004643 23 221 0.0 6.4 0.00 0.00 0.00 44 1010.5
20260502004440 23 229 0.0 6.4 0.00 0.00 0.00 45 1010.5
20260502004050 23 290 0.0 6.4 0.00 0.00 0.00 45 1010.5
20260502003657 23 192 0.0 6.4 0.00 0.00 0.00 45 1010.5
20260502003450 23 192 1.6 6.4 0.00 0.00 0.00 44 1010.4
20260502003244 23 192 1.6 11.3 0.00 0.00 0.00 46 1010.5
20260502003033 23 192 1.6 11.3 0.00 0.00 0.00 45 1010.5
20260502002635 24 239 1.6 11.3 0.00 0.00 0.00 44 1010.6
20260502002424 24 165 1.6 11.3 0.00 0.00 0.00 44 1010.5
20260502002212 24 291 1.6 11.3 0.00 0.00 0.00 44 1010.4
20260502001819 24 283 1.6 11.3 0.00 0.00 0.00 45 1010.4
20260502001426 24 212 0.0 8.0 0.00 0.00 0.00 46 1010.6
20260502001215 24 259 0.0 8.0 0.00 0.00 0.00 43 1010.6
20260502001012 24 234 0.0 8.0 0.00 0.00 0.00 42 1010.5
20260502000810 24 298 0.0 8.0 0.00 0.00 0.00 42 1010.6
20260502000601 24 190 0.0 8.0 0.00 0.00 0.00 43 1010.7
20260502000355 24 190 0.0 8.0 0.00 0.00 0.00 44 1010.7
20260502000004 24 164 1.6 8.0 0.00 0.00 0.00 42 1010.6
20260501235616 24 261 0.0 4.8 0.00 0.00 0.00 42 1010.6
20260501235408 24 261 0.0 4.8 0.00 0.00 0.00 43 1010.6
20260501235203 24 261 0.0 11.3 0.00 0.00 0.00 40 1010.7
20260501234958 24 134 0.0 11.3 0.00 0.00 0.00 41 1010.7
20260501234746 24 28 0.0 11.3 0.00 0.00 0.00 41 1010.7
20260501234540 24 320 0.0 11.3 0.00 0.00 0.00 42 1010.8
20260501234337 23 313 1.6 11.3 0.00 0.00 0.00 42 1010.8
20260501234131 23 340 1.6 11.3 0.00 0.00 0.00 42 1010.8
20260501233927 23 273 1.6 11.3 0.00 0.00 0.00 43 1010.8
20260501233721 23 286 1.6 11.3 0.00 0.00 0.00 42 1010.8
20260501233509 23 323 1.6 11.3 0.00 0.00 0.00 41 1010.8
20260501233112 23 256 1.6 9.7 0.00 0.00 0.00 42 1010.7
20260501232904 23 252 1.6 9.7 0.00 0.00 0.00 42 1010.7
20260501232655 24 285 0.0 9.7 0.00 0.00 0.00 42 1010.7
20260501232446 24 264 1.6 9.7 0.00 0.00 0.00 42 1010.7
20260501232238 24 265 1.6 9.7 0.00 0.00 0.00 44 1010.7
20260501232030 23 231 1.6 9.7 0.00 0.00 0.00 43 1010.7
20260501231825 24 214 0.0 9.7 0.00 0.00 0.00 43 1010.7
20260501231427 24 249 0.0 9.7 0.00 0.00 0.00 43 1010.8
20260501231033 24 276 0.0 3.2 0.00 0.00 0.00 44 1010.7
20260501230823 24 276 0.0 8.0 0.00 0.00 0.00 42 1010.7
20260501230613 24 166 0.0 1.6 0.00 0.00 0.00 41 1010.9
20260501230223 25 293 1.6 8.0 0.00 0.00 0.00 42 1011.0
20260501230016 25 293 1.6 12.9 0.00 0.00 0.00 42 1011.0
20260501225624 25 234 1.6 12.9 0.00 0.00 0.00 43 1011.0
20260501225236 24 288 1.6 12.9 0.00 0.00 0.00 45 1011.0
20260501225032 23 288 3.2 12.9 0.00 0.00 0.00 44 1011.1
20260501224645 23 277 1.6 12.9 0.00 0.00 0.00 45 1011.2
20260501224257 23 269 1.6 12.9 0.00 0.00 0.00 44 1011.3
20260501223910 24 221 1.6 9.7 0.00 0.00 0.00 47 1011.3
20260501223706 23 322 1.6 9.7 0.00 0.00 0.00 46 1011.3
20260501223318 23 177 1.6 8.0 0.00 0.00 0.00 46 1011.3
20260501223112 23 269 1.6 8.0 0.00 0.00 0.00 44 1011.3
20260501222907 24 273 1.6 8.0 0.00 0.00 0.00 44 1011.4
20260501222511 24 252 0.0 8.0 0.00 0.00 0.00 45 1011.5
20260501222305 24 248 0.0 8.0 0.00 0.00 0.00 46 1011.5
20260501222053 24 279 0.0 8.0 0.00 0.00 0.00 44 1011.6
20260501221844 24 327 0.0 8.0 0.00 0.00 0.00 46 1011.6
20260501221449 25 69 1.6 8.0 0.00 0.00 0.00 44 1011.7
20260501221240 25 165 0.0 8.0 0.00 0.00 0.00 44 1011.7
20260501221027 25 271 0.0 8.0 0.00 0.00 0.00 46 1011.7
20260501220447 24 5 1.6 8.0 0.00 0.00 0.00 45 1011.8
20260501220246 24 279 1.6 8.0 0.00 0.00 0.00 46 1011.8
20260501220038 24 278 1.6 8.0 0.00 0.00 0.00 45 1011.9
20260501215640 24 185 1.6 8.0 0.00 0.00 0.00 44 1011.9
20260501215430 25 154 1.6 8.0 0.00 0.00 0.00 41 1011.9
20260501215218 25 240 1.6 6.4 0.00 0.00 0.00 42 1011.9
20260501215008 25 236 1.6 6.4 0.00 0.00 0.00 43 1011.9
20260501214759 25 217 1.6 12.9 0.00 0.00 0.00 41 1012.0
20260501214549 24 255 1.6 12.9 0.00 0.00 0.00 42 1011.9
20260501214152 24 252 3.2 12.9 0.00 0.00 0.00 42 1012.0
20260501213949 24 186 3.2 12.9 0.00 0.00 0.00 39 1012.0
20260501213745 24 288 3.2 12.9 0.00 0.00 0.00 44 1011.9
20260501213542 24 169 3.2 12.9 0.00 0.00 0.00 41 1011.9
20260501213338 24 173 3.2 12.9 0.00 0.00 0.00 42 1011.9
20260501212946 24 165 3.2 12.9 0.00 0.00 0.00 41 1012.1
20260501212736 24 253 1.6 11.3 0.00 0.00 0.00 41 1012.0
20260501212344 24 244 1.6 9.7 0.00 0.00 0.00 42 1012.0
20260501212140 24 260 1.6 9.7 0.00 0.00 0.00 41 1012.0
20260501211938 25 196 0.0 9.7 0.00 0.00 0.00 43 1012.0
20260501211732 24 195 1.6 9.7 0.00 0.00 0.00 43 1012.0
20260501211346 24 249 0.0 9.7 0.00 0.00 0.00 43 1012.1
20260501211137 24 253 0.0 9.7 0.00 0.00 0.00 45 1012.0
20260501210932 24 252 1.6 9.7 0.00 0.00 0.00 44 1012.1
20260501210727 24 252 1.6 9.7 0.00 0.00 0.00 45 1012.1
20260501210519 23 252 1.6 9.7 0.00 0.00 0.00 44 1012.1
20260501210128 24 190 1.6 9.7 0.00 0.00 0.00 45 1012.1
20260501205916 24 273 1.6 9.7 0.00 0.00 0.00 44 1012.0
20260501205714 24 273 1.6 9.7 0.00 0.00 0.00 45 1012.1
20260501205512 23 325 1.6 4.8 0.00 0.00 0.00 45 1012.0
20260501205306 23 202 1.6 0.0 0.00 0.00 0.00 44 1012.1
20260501205052 24 202 1.6 9.7 0.00 0.00 0.00 44 1012.1
20260501204845 23 188 1.6 11.3 0.00 0.00 0.00 44 1012.1
20260501204306 23 219 1.6 11.3 0.00 0.00 0.00 45 1012.1
20260501204104 23 221 1.6 11.3 0.00 0.00 0.00 45 1012.1
20260501203851 23 225 1.6 11.3 0.00 0.00 0.00 44 1012.2
20260501203649 23 207 1.6 11.3 0.00 0.00 0.00 44 1012.2
20260501203447 23 200 1.6 11.3 0.00 0.00 0.00 43 1012.2
20260501203240 24 240 1.6 11.3 0.00 0.00 0.00 45 1012.2
20260501203031 24 157 1.6 11.3 0.00 0.00 0.00 44 1012.2
20260501202639 24 261 1.6 9.7 0.00 0.00 0.00 41 1012.2
20260501202105 24 255 1.6 9.7 0.00 0.00 0.00 43 1012.3
20260501201856 24 280 0.0 8.0 0.00 0.00 0.00 45 1012.3
20260501201644 23 317 0.0 8.0 0.00 0.00 0.00 44 1012.3
20260501201438 23 336 0.0 8.0 0.00 0.00 0.00 43 1012.3
20260501201234 23 243 0.0 8.0 0.00 0.00 0.00 43 1012.4
20260501201023 23 243 1.6 12.9 0.00 0.00 0.00 44 1012.4
20260501200813 23 243 1.6 12.9 0.00 0.00 0.00 42 1012.5
20260501200601 23 191 3.2 12.9 0.00 0.00 0.00 42 1012.5
20260501200349 23 275 1.6 12.9 0.00 0.00 0.00 42 1012.5
20260501200139 23 194 3.2 12.9 0.00 0.00 0.00 41 1012.6
20260501195935 23 189 1.6 12.9 0.00 0.00 0.00 40 1012.5
20260501195539 23 258 1.6 12.9 0.00 0.00 0.00 40 1012.5
20260501195332 23 201 1.6 12.9 0.00 0.00 0.00 41 1012.5
20260501195122 23 193 0.0 9.7 0.00 0.00 0.00 46 1012.6
20260501194919 23 193 0.0 9.7 0.00 0.00 0.00 42 1012.6
20260501194714 23 193 1.6 9.7 0.00 0.00 0.00 41 1012.6
20260501194502 23 292 1.6 8.0 0.00 0.00 0.00 44 1012.6
20260501194249 23 292 1.6 8.0 0.00 0.00 0.00 41 1012.6
20260501194037 23 292 1.6 8.0 0.00 0.00 0.00 40 1012.6
20260501193832 24 288 1.6 8.0 0.00 0.00 0.00 40 1012.7
20260501193623 23 288 1.6 6.4 0.00 0.00 0.00 43 1012.7
20260501193411 23 279 1.6 6.4 0.00 0.00 0.00 42 1012.8
20260501193205 23 271 1.6 6.4 0.00 0.00 0.00 41 1012.8
20260501192955 23 271 0.0 6.4 0.00 0.00 0.00 42 1012.8
20260501192602 23 270 0.0 11.3 0.00 0.00 0.00 43 1012.8
20260501192349 23 270 0.0 11.3 0.00 0.00 0.00 40 1012.8
20260501192142 23 269 0.0 11.3 0.00 0.00 0.00 41 1013.0
20260501191933 23 277 1.6 11.3 0.00 0.00 0.00 40 1013.0
20260501191731 23 289 3.2 11.3 0.00 0.00 0.00 41 1013.0
20260501191520 23 210 3.2 11.3 0.00 0.00 0.00 41 1013.0
20260501191122 23 303 3.2 11.3 0.00 0.00 0.00 39 1013.1
20260501190911 23 296 3.2 11.3 0.00 0.00 0.00 40 1013.1
20260501190709 23 299 1.6 11.3 0.00 0.00 0.00 41 1013.2
20260501190500 23 259 1.6 11.3 0.00 0.00 0.00 43 1013.1
20260501190258 23 259 1.6 11.3 0.00 0.00 0.00 39 1013.2
20260501190054 23 257 1.6 11.3 0.00 0.00 0.00 40 1013.2
20260501185842 22 306 1.6 11.3 0.00 0.00 0.00 43 1013.2
20260501185638 22 299 1.6 11.3 0.00 0.00 0.00 42 1013.2
20260501185435 22 298 1.6 11.3 0.00 0.00 0.00 41 1013.2
20260501185231 22 300 1.6 11.3 0.00 0.00 0.00 43 1013.3